Content
SEND FEEDBACK

Daily
Averages
Monthly
Summary
United States of America

BOILING SPRING LAKES, NORTH CAROLINA


Home > North America > United States > North Carolina
Elevation: 6 meters     Latitude: 34 00N     Longitude: 078 01W

WEATHER
 
SELECT A DAY
Number of Records: 135,966;   Date Range: 8/21/01 - 7/7/14
 
SHARE

PRINT THIS DATA

[ ← Previous Day ]
WEATHER ALMANAC - 3 JANUARY, 2013
[ Next Day → ]
[ °F ]   °C
Weather ElementAverageHighLow
Temperature4.7 °C6.9 °C (12:15 pm)1.5 °C (11:55 pm)
Dewpoint3.2 °C5.8 °C (12:15 pm)0.9 °C (11:55 pm)
Humidity90.6 %96 % (10:35 am)81 % (6:35 am)
Barometer1022 hPa1025.1 hPa (10:35 pm)1020 hPa (3:55 am)
Wind Speed8.5 km/h16.7 km/h (1:55 pm)
Weather ElementAverage
Visibility11.9 km
Wind DirectionESE (126.9 °)

Weather ElementTotal
Precipitation2.79 mm
Heating Degree Days14.2 (Base 18.3)
Averaged from 70 records on 3 January, 2013
WEATHER CONDITIONS BREAKOUT
WIND DIRECTION BREAKOUT
WEATHER BY HOUR - 3 JANUARY, 2013
[ °F ]   °C
Local TimeTemperatureDewpointHumidityBarometerVisibilityWind DirectionWind SpeedGust SpeedPrecipitationEventsConditions
12:35 AM5.2 °C3 °C86 %1021 hPa16.1 kmNE (40°)9.3 km/hOvercast
12:55 AM5.2 °C3 °C86 %1021 hPa16.1 kmNNE (20°)11.1 km/hOvercast
1:15 AM5.2 °C3.1 °C86 %1020.7 hPa16.1 kmNNE (30°)9.3 km/hOvercast
1:35 AM5.2 °C3.2 °C87 %1020.7 hPa16.1 kmNNE (20°)9.3 km/hMostly Cloudy
1:55 AM5.1 °C3.2 °C88 %1020.3 hPa16.1 kmNE (40°)11.1 km/hScattered Clouds
2:15 AM5 °C3.2 °C88 %1020.3 hPa16.1 kmNE (40°)7.4 km/hClear
2:35 AM5 °C3.1 °C88 %1020.3 hPa16.1 kmNE (40°)11.1 km/hClear
2:55 AM5 °C3 °C87 %1020.7 hPa16.1 kmNE (40°)7.4 km/hClear
3:15 AM4.9 °C3 °C88 %1020.3 hPa16.1 kmNE (40°)7.4 km/hClear
3:35 AM4.9 °C2.9 °C87 %1020.3 hPa16.1 kmNNE (30°)11.1 km/hClear
3:55 AM5 °C2.8 °C86 %1020 hPa11.3 kmNNE (20°)9.3 km/hScattered Clouds
4:15 AM5.1 °C2.7 °C85 %1020.3 hPa11.3 kmNNE (20°)7.4 km/hScattered Clouds
4:35 AM5.1 °C2.7 °C85 %1020.7 hPa11.3 kmNorth (10°)9.3 km/hScattered Clouds
4:55 AM5 °C2.5 °C84 %1020.7 hPa11.3 kmNorth (10°)11.1 km/hScattered Clouds
5:15 AM4.7 °C2.3 °C85 %1020.7 hPa11.3 kmNNE (20°)9.3 km/hScattered Clouds
5:35 AM4.6 °C2.1 °C84 %1021.3 hPa11.3 kmNorth (10°)9.3 km/hScattered Clouds
5:55 AM4.6 °C2 °C83 %1021.3 hPa16.1 kmNorth (360°)9.3 km/hScattered Clouds
6:15 AM4.5 °C1.7 °C82 %1021 hPa16.1 kmNNE (20°)13 km/hClear
6:35 AM4.5 °C1.5 °C81 %1021 hPa16.1 kmNorth (10°)13 km/hClear
6:55 AM4.5 °C1.5 °C81 %1022 hPa16.1 kmNorth (10°)11.1 km/hClear
7:15 AM4.2 °C1.6 °C83 %1022 hPa16.1 kmNNE (20°)11.1 km/hLight Drizzle
7:35 AM4 °C1.7 °C85 %1021.7 hPa16.1 kmNNE (20°)14.8 km/hLight Drizzle
7:55 AM3.8 °C1.7 °C86 %1022 hPa16.1 kmNorth (10°)11.1 km/hLight Drizzle
8:35 AM3.6 °C2 °C89 %1022.7 hPa16.1 kmNorth (10°)13 km/hScattered Clouds
8:55 AM3.6 °C1.8 °C88 %1022.4 hPa16.1 kmNNE (30°)9.3 km/hLight Drizzle
9:15 AM3.7 °C2.4 °C91 %1022.4 hPa11.3 kmNE (50°)7.4 km/hRainLight Rain
9:35 AM4 °C2.9 °C93 %1022.7 hPa8 kmCalm0.25 mmRainLight Rain
9:55 AM4.2 °C3.5 °C95 %1022.7 hPa8 kmCalm0.25 mmRainLight Rain
10:15 AM4.5 °C3.8 °C95 %1022.7 hPa6.4 kmCalm0.25 mmRainLight Rain
10:35 AM5.1 °C4.5 °C96 %1022.4 hPa6.4 kmNE (40°)5.6 km/h0.51 mmRainLight Rain
10:55 AM5.9 °C5.2 °C95 %1022.4 hPa6.4 kmENE (60°)7.4 km/h0.51 mmRainLight Rain
11:15 AM6.1 °C5.3 °C95 %1021.7 hPa8 kmENE (60°)11.1 km/hRainLight Rain
11:35 AM6.5 °C5.5 °C93 %1021 hPa11.3 kmENE (60°)11.1 km/hDrizzle
11:55 AM6.8 °C5.5 °C91 %1021.3 hPa11.3 kmNNE (20°)11.1 km/hLight Drizzle
12:15 PM6.9 °C5.8 °C93 %1021.3 hPa11.3 kmNorth (10°)14.8 km/h0.25 mmRainRain
12:35 PM6.7 °C5.7 °C93 %1021.3 hPa11.3 kmNorth (10°)9.3 km/h0.25 mmRainRain
12:55 PM6.7 °C5.6 °C93 %1021.3 hPa11.3 kmNNE (20°)7.4 km/h0.25 mmRainRain
1:15 PM6.6 °C5.6 °C93 %1021 hPa8 kmCalmRainLight Rain
1:35 PM6.7 °C5.8 °C94 %1020.7 hPa8 kmNorth (10°)11.1 km/hDrizzle
1:55 PM5.8 °C5.1 °C95 %1021 hPa8 kmNorth (350°)16.7 km/h0.25 mmLight Drizzle
2:15 PM5.3 °C4.7 °C96 %1021 hPa8 kmNorth (10°)7.4 km/hLight Drizzle
2:35 PM5.3 °C4.7 °C96 %1021 hPa11.3 kmNorth (360°)9.3 km/hOvercast
2:55 PM5.5 °C4.7 °C95 %1020.7 hPa8 kmNorth (10°)9.3 km/hOvercast
3:15 PM5.3 °C4.7 °C96 %1021.3 hPa8 kmNorth (360°)13 km/hOvercast
3:35 PM5.1 °C4.5 °C96 %1021.7 hPa11.3 kmNorth (360°)14.8 km/hOvercast
3:55 PM4.7 °C4.1 °C96 %1021.7 hPa8 kmNorth (360°)11.1 km/hOvercast
4:15 PM4.7 °C3.9 °C95 %1021.7 hPa11.3 kmNE (40°)5.6 km/hOvercast
4:35 PM4.7 °C4 °C95 %1021.3 hPa8 kmCalmMostly Cloudy
4:55 PM4.6 °C4 °C96 %1022.4 hPa8 kmNorth (360°)13 km/hOvercast
5:15 PM4.5 °C3.7 °C95 %1021.7 hPa11.3 kmNNE (30°)5.6 km/hOvercast
5:35 PM4.5 °C3.6 °C94 %1022.4 hPa11.3 kmNNE (20°)7.4 km/hMostly Cloudy
5:55 PM4.5 °C3.6 °C94 %1022.7 hPa11.3 kmNorth (350°)7.4 km/hMostly Cloudy
6:15 PM4.4 °C3.6 °C95 %1023 hPa11.3 kmNorth (360°)5.6 km/hMostly Cloudy
6:35 PM4.3 °C3.5 °C95 %1023 hPa11.3 kmNorth (350°)9.3 km/hOvercast
6:55 PM4.2 °C3.3 °C94 %1023 hPa11.3 kmNNE (20°)11.1 km/hMostly Cloudy
7:15 PM4.2 °C3.3 °C94 %1023.4 hPa11.3 kmNorth (360°)11.1 km/hMostly Cloudy
7:35 PM4.1 °C3.2 °C94 %1023.4 hPa8 kmNorth (10°)11.1 km/hMostly Cloudy
7:55 PM4 °C3 °C93 %1024 hPa11.3 kmNorth (360°)7.4 km/hMostly Cloudy
8:15 PM4 °C2.8 °C92 %1024 hPa11.3 kmNorth (360°)9.3 km/hOvercast
8:35 PM3.8 °C2.5 °C91 %1023.7 hPa11.3 kmNorth (360°)11.1 km/hMostly Cloudy
8:55 PM3.8 °C2.2 °C89 %1024.4 hPa11.3 kmNorth (360°)7.4 km/hMostly Cloudy
9:15 PM3.8 °C2 °C88 %1024.4 hPa11.3 kmNorth (360°)7.4 km/hOvercast
9:35 PM3.8 °C1.9 °C88 %1024.4 hPa16.1 kmNorth (360°)5.6 km/hOvercast
9:55 PM3.7 °C1.8 °C87 %1024.7 hPa16.1 kmNorth (350°)5.6 km/hOvercast
10:15 PM3.5 °C1.6 °C87 %1024.7 hPa16.1 kmNorth (350°)5.6 km/hScattered Clouds
10:35 PM3 °C1.5 °C90 %1025.1 hPa11.3 kmNorth (350°)5.6 km/hClear
10:55 PM2.6 °C1.5 °C93 %1025.1 hPa11.3 kmCalmClear
11:15 PM2 °C1.2 °C94 %1025.1 hPa8 kmNorth (350°)5.6 km/hClear
11:35 PM1.6 °C1 °C96 %1024.7 hPa8 kmCalmClear
11:55 PM1.5 °C0.9 °C96 %1024.7 hPa8 kmNorth (350°)7.4 km/hClear
Hourly data recorded from KSUT, located 0 kilometers away from Boiling Spring Lakes, North Carolina







STORIES FROM OUR PARTNERS